Showing default

RASSVET-3 13, 68372

Orbit data source: Space-Track

RASSVET-3 13, 68372 is a payload satellite owned by Byuro 1440 (CIS) in LEO that was launched on Mon, 23 Mar 2026 UTC via a SOYUZ-2-1B launch vehicle from the Plesetsk Missile And Space Complex (PKMTR). Payload-class satellites include a variety of spacecraft equipped with specific instruments for various scientific and technological missions. These include communications satellites like Starlink; space stations such as the ISS; scientific satellites like the Hubble; Earth observation satellites from companies like Planet Labs, Umbra, and HawkEye 360; GPS; miniature CubeSats for education and research; and military/defense satellites.

Loading next visibility...
Identifier
68372, 2026-061N
Orbit
LEO
Country
Flag of CISCIS
Related business
Manufacturer
Byuro 1440
Mission
Operational spacecraft
Bus & Motor
RASSVET-2, Unknown motor
Mass
~370 kg wet, ~370 kg dry
Launch date (UTC)
2026-03-23 (3 months ago)
Launch vehicle
SOYUZ-2-1B
Launch site
Plesetsk Missile And Space Complex (PKMTR)
Object type
Payload
Rocket body
Debris
Shape & HBR
Unknown shape, 1.8 m
Radar Cross Section
Large (>1 m²)

Expand to show TLE details & history
Last TLE update: 5 hours ago

TLE from 5 hours ago
0 RASSVET-3 13
1 68372U 26061N   26169.83639676  .00003828  00000-0  12187-3 0  9996
2 68372  82.2958  12.9083 0007193  89.1168 271.0897 15.32234436 13661
Epoch: 2026-06-18T20:04Z
TLE epoch observation values (Epoch: 2026-06-18T20:04:24.680Z)
Latitude
Longitude
164.73146°
Altitude
472.155 km
Speed
7.63 km/s
True Right ascension
00h 51m 37s
True Declination
0° 00' 00"
Sunlit
Object was in daylight at epoch
Visualization orbit readout
Latitude
Unknown
Longitude
Unknown
Altitude
Unknown
Speed
Unknown
Apparent Right ascension
Unknown
Apparent Declination
Unknown
Sunlit
N/A
Visualization observer readout
Local Sidereal Time
12:05:17
Azimuth
Unknown
Elevation
Unknown
Doppler factor
Unknown
Orbital elements
Apogee altitude
471.033 km
Perigee altitude
461.187 km
Semi-major axis
6,844.247 km
Eccentricity
0.00072
Inclination
82.2958°
RAAN
12.9083°
Arg. of periapsis
89.1168°
True anomaly
271.00729°
Mean anomaly
271.0897°
Eccentric anomaly
271.04849°
Mean motion
3.83314 °/min
Orbital period
93.92 mins
BSTAR
0.00012187
Loading maneuver chart data...
Computing Atmospheric mass density...
Loading historical data...
Loading historical data...
Loading historical data...
Loading historical data...
Loading historical data...
Loading historical data...
Loading historical data...

Documentation

Showing up to 5 results
|